Date,TemperatureHighF,TemperatureAvgF,TemperatureLowF,DewpointHighF,DewpointAvgF,DewpointLowF,HumidityHigh,HumidityAvg,HumidityLow,PressureMaxIn,PressureMinIn,WindSpeedMaxMPH,WindSpeedAvgMPH,GustSpeedMaxMPH,PrecipitationSumIn
2012-1-1,70,51,41,45,35,27,86,60,25,30.19,30.10,6,1,8,0.00
2012-1-2,64,49,41,43,38,34,85,69,38,30.28,30.13,6,1,8,0.00
2012-1-3,69,51,40,47,35,26,90,61,24,30.31,30.22,4,1,6,0.00
2012-1-4,73,54,42,40,30,25,74,46,22,30.37,30.25,4,1,6,0.00
2012-1-5,75,52,41,36,32,26,73,50,21,30.28,30.13,7,2,10,0.00
2012-1-6,68,50,42,48,37,30,95,66,29,30.19,30.07,4,1,6,0.00
2012-1-7,71,53,36,40,21,7,86,42,14,30.19,30.10,8,2,15,0.00
2012-1-8,73,57,44,16,9,5,34,18,14,30.22,30.13,7,2,9,0.00
2012-1-9,72,50,37,28,23,15,54,38,19,30.22,30.10,4,2,6,0.00
2012-1-10,70,50,37,34,25,19,69,44,22,30.13,30.04,5,1,6,0.00
2012-1-11,46,43,40,19,16,12,42,36,28,30.07,30.04,4,1,4,0.00
2012-1-12,73,51,36,23,16,8,49,29,14,30.10,30.01,4,1,6,0.00
2012-1-13,72,50,37,24,19,12,49,34,16,30.22,30.10,5,2,6,0.00
2012-1-14,72,50,36,27,22,15,58,39,16,30.16,30.04,4,1,5,0.00
2012-1-15,58,44,37,39,26,15,78,50,33,30.13,29.99,11,3,15,0.00
2012-1-16,59,40,28,18,13,3,53,36,17,30.28,30.10,7,2,10,0.00
2012-1-17,60,40,27,23,19,15,69,46,22,30.37,30.28,6,2,8,0.00
2012-1-18,63,43,30,29,24,19,74,52,25,30.37,30.22,4,2,7,0.00
2012-1-19,48,42,33,43,32,24,86,69,43,30.22,30.01,4,0,5,0.08
2012-1-20,59,54,47,55,49,43,95,84,65,30.01,29.72,13,3,21,1.77
2012-1-21,57,49,40,53,37,26,86,65,37,30.13,29.72,16,6,22,0.51
2012-1-22,53,47,39,43,34,25,83,64,45,30.13,29.81,12,2,17,0.08
2012-1-23,54,51,45,49,46,41,93,83,70,30.13,29.66,15,3,21,0.51
2012-1-24,64,51,44,47,40,33,94,72,35,30.40,30.13,5,1,7,0.00
2012-1-25,72,55,44,47,40,35,85,63,32,30.43,30.31,4,1,6,0.00
2012-1-26,68,57,50,54,47,42,85,73,46,30.34,30.19,8,1,13,0.00
2012-1-27,73,56,47,47,24,7,90,42,14,30.25,30.16,9,1,13,0.00
2012-1-28,73,53,39,29,17,6,57,30,14,30.31,30.22,4,2,6,0.00
2012-1-29,72,52,39,39,32,26,77,51,23,30.25,30.10,4,1,5,0.00
2012-1-30,64,52,44,43,36,28,83,58,31,30.13,29.99,9,1,11,0.00
2012-1-31,68,53,46,44,39,31,85,62,31,30.19,30.04,8,2,12,0.00
2012-2-1,65,52,43,49,37,30,86,62,32,30.25,30.16,7,2,10,0.00
2012-2-2,74,53,39,40,21,6,81,41,13,30.22,29.93,8,1,9,0.00
2012-2-3,70,52,39,34,23,12,68,37,22,30.04,29.96,9,1,11,0.00
2012-2-4,73,52,40,36,28,20,77,48,19,30.10,30.01,4,1,6,0.00
2012-2-5,71,52,39,31,23,13,62,39,17,30.10,29.99,5,2,6,0.00
2012-2-6,71,54,43,39,26,22,61,38,22,29.99,29.78,6,1,8,0.00
2012-2-7,56,52,50,48,43,30,78,70,41,30.10,29.75,8,2,13,0.16
2012-2-8,73,55,46,52,40,32,91,64,26,30.25,30.07,4,1,6,0.00
2012-2-9,77,57,42,45,37,30,82,55,22,30.25,30.13,10,1,13,0.00
2012-2-10,67,53,43,49,39,26,76,63,29,30.19,30.07,8,2,12,0.00
2012-2-11,59,52,48,45,42,36,84,70,46,30.07,29.99,10,3,14,0.00
2012-2-12,63,51,47,41,36,29,77,59,34,30.04,29.96,10,2,14,0.00
2012-2-13,54,47,40,42,35,29,85,65,46,29.99,29.87,12,4,17,0.08
2012-2-14,63,46,34,43,33,24,91,65,27,30.07,29.96,10,2,18,0.04
2012-2-15,64,51,36,43,19,7,83,36,16,30.13,30.01,15,3,17,0.16
2012-2-16,74,55,42,19,14,10,40,24,13,30.22,30.13,7,2,10,0.00
2012-2-17,74,52,38,45,30,18,79,48,21,30.22,30.13,9,2,12,0.00
2012-2-18,63,52,44,49,36,22,94,59,26,30.19,30.07,9,3,14,0.00
2012-2-19,59,46,37,34,26,18,69,49,24,30.13,30.01,9,2,13,0.00
2012-2-20,64,51,44,44,35,30,79,57,34,30.19,30.04,6,1,8,0.00
2012-2-21,76,55,40,42,35,28,82,54,22,30.25,30.16,8,1,11,0.00
2012-2-22,86,64,49,43,31,20,74,38,13,30.25,30.07,8,2,11,0.00
2012-2-23,82,64,46,40,22,9,77,32,12,30.07,29.96,7,2,10,0.00
2012-2-24,83,63,50,35,16,7,57,23,11,30.16,29.99,8,3,12,0.00
2012-2-25,70,54,41,36,23,14,60,36,17,30.28,30.16,7,3,10,0.00
2012-2-26,67,47,35,26,19,9,52,38,15,30.16,29.81,13,3,20,0.00
2012-2-27,59,46,37,32,24,18,69,46,25,29.93,29.75,11,3,13,0.00
2012-2-28,57,46,36,33,25,17,74,48,26,30.19,29.93,12,4,17,0.00
2012-2-29,55,48,43,44,35,25,86,63,37,30.22,29.99,11,4,17,0.59
2012-3-1,57,47,39,45,37,31,84,70,47,30.22,30.13,10,4,13,0.35
2012-3-2,72,51,37,34,21,8,83,43,14,30.31,30.19,5,1,8,0.00
2012-3-3,80,55,37,29,24,17,60,36,15,30.31,30.22,6,2,8,0.00
2012-3-4,83,59,42,35,30,22,64,40,16,30.22,30.04,5,2,8,0.00
2012-3-5,77,56,44,41,32,20,74,48,16,30.07,29.99,10,2,14,0.00
2012-3-6,65,51,42,44,22,5,84,40,15,30.01,29.87,13,4,18,0.00
2012-3-7,73,52,40,14,10,4,32,22,14,30.16,29.99,6,3,10,0.00
2012-3-8,78,55,37,21,16,10,43,26,13,30.31,30.13,5,2,8,0.00
2012-3-9,84,59,39,28,20,10,55,30,13,30.31,30.13,7,2,10,0.00
2012-3-10,52,49,48,40,36,34,66,62,60,30.01,0.00,9,4,14,0.00
2012-3-11,64,51,44,39,33,27,65,53,29,30.04,29.99,10,4,13,0.00
2012-3-12,64,50,37,38,29,22,80,50,25,30.01,29.93,11,3,20,0.00
2012-3-13,55,53,51,45,41,32,77,64,47,29.99,29.87,13,6,17,0.35
2012-3-14,59,56,54,50,47,43,82,72,65,30.13,29.96,10,4,13,0.43
2012-3-15,61,57,55,51,48,45,81,71,63,30.13,30.04,8,2,11,0.04
2012-3-16,60,54,46,52,46,35,82,73,57,30.07,29.72,10,4,15,1.38
2012-3-17,51,46,40,46,35,25,94,69,45,29.75,29.51,5,1,8,0.00
2012-3-18,56,46,41,31,24,14,66,45,27,29.93,29.63,13,6,17,0.00
2012-3-19,65,48,34,26,21,17,65,39,21,30.07,29.90,6,1,8,0.00
2012-3-20,73,56,47,35,29,23,54,40,23,30.19,30.07,7,1,8,0.00
2012-3-21,76,58,45,46,37,29,76,52,23,30.16,29.99,8,2,11,0.00
2012-3-22,60,52,43,47,34,15,79,54,24,30.01,29.93,12,4,19,0.00
2012-3-23,69,50,37,37,24,14,77,43,18,30.07,29.87,10,2,13,0.00
2012-3-24,52,47,44,39,32,16,81,61,28,29.90,29.81,10,2,14,0.39
2012-3-25,63,48,40,41,36,28,86,66,31,29.87,29.78,4,1,4,0.39
2012-3-26,60,50,40,38,29,20,83,51,26,30.04,29.87,14,3,17,0.00
2012-3-27,58,52,48,46,36,26,78,56,38,30.01,29.87,12,4,20,0.59
2012-3-28,67,57,49,50,40,26,85,59,26,30.10,29.93,10,4,13,0.31
2012-3-29,67,55,45,48,39,28,86,60,29,30.10,30.04,8,2,11,0.00
2012-3-30,69,58,49,50,42,35,83,59,34,30.10,29.93,9,2,13,0.00
2012-3-31,58,53,46,45,37,26,78,57,36,30.01,29.72,14,6,22,0.75
2012-4-1,68,52,42,40,29,20,80,47,20,30.25,30.01,9,2,14,0.00
2012-4-2,73,53,39,39,29,22,77,47,19,30.22,30.04,10,2,13,0.00
2012-4-3,70,54,45,47,36,24,78,56,23,30.07,29.99,10,3,17,0.04
2012-4-4,64,50,39,39,27,11,83,47,18,30.16,30.07,12,4,16,0.00
2012-4-5,65,48,37,26,22,14,59,40,20,30.16,30.04,11,3,14,0.00
2012-4-6,72,51,35,33,22,11,76,42,14,30.22,30.13,7,1,10,0.00
2012-4-7,77,54,36,31,24,16,67,38,15,30.13,29.99,6,2,8,0.00
2012-4-8,76,54,39,31,25,18,62,39,16,30.04,29.96,12,3,14,0.00
2012-4-9,76,56,41,36,26,10,66,38,14,29.99,29.81,11,2,20,0.00
2012-4-10,57,54,51,49,42,25,84,66,35,29.90,29.81,12,1,16,0.83
2012-4-11,59,53,48,47,37,29,85,59,36,29.99,29.78,10,4,17,0.20
2012-4-12,64,52,46,43,35,21,80,57,25,30.01,29.84,10,4,17,0.98
2012-4-13,58,50,45,44,34,26,86,58,35,29.84,29.69,11,4,14,0.75
2012-4-14,67,53,44,36,30,24,69,45,25,30.10,29.84,10,4,14,0.00
2012-4-15,74,56,45,45,38,27,82,56,25,30.19,30.10,10,2,12,0.00
2012-4-16,72,57,44,46,34,18,83,51,17,30.22,30.13,9,2,13,0.00
2012-4-17,73,57,48,50,39,26,85,57,23,30.16,30.07,12,2,16,0.00
2012-4-18,72,58,47,47,39,28,78,56,24,30.16,30.07,11,3,15,0.00
2012-4-19,80,64,52,51,45,41,84,56,30,30.16,30.04,10,2,13,0.00
2012-4-20,96,72,55,58,42,22,86,47,11,30.10,29.99,7,1,8,0.00
2012-4-21,99,74,56,47,40,29,62,37,13,30.01,29.87,5,1,8,0.00
2012-4-22,90,71,57,53,44,33,71,45,19,29.93,29.87,11,1,14,0.00
2012-4-23,72,60,55,49,43,36,76,56,32,30.01,29.90,10,3,16,0.00
2012-4-24,75,63,55,48,42,35,71,50,28,30.04,29.96,10,2,12,0.00
2012-4-25,76,62,56,52,44,36,79,56,31,30.01,29.78,8,1,13,0.04
2012-4-26,62,55,47,51,40,26,85,60,30,30.16,29.78,10,3,15,0.16
2012-4-27,77,56,41,38,31,24,74,45,18,30.19,30.10,9,2,13,0.00
2012-4-28,79,61,46,46,38,32,80,49,23,30.13,29.90,9,2,13,0.00
2012-4-29,90,66,49,51,38,28,83,47,15,29.96,29.87,7,1,10,0.00
2012-4-30,81,63,52,47,40,29,74,49,20,29.96,29.93,8,2,13,0.04
2012-5-1,71,55,47,45,36,27,81,55,24,29.96,29.87,13,3,19,0.00
2012-5-2,68,54,45,39,32,24,72,49,24,29.96,29.87,12,3,19,0.00
2012-5-3,64,56,48,50,41,34,84,59,42,30.07,29.93,8,2,10,0.00
2012-5-4,66,56,47,50,38,30,85,56,30,30.19,30.04,9,2,15,0.04
2012-5-5,84,61,42,45,29,14,84,43,11,30.19,30.04,7,2,9,0.00
2012-5-6,89,67,46,37,25,14,64,30,10,30.07,30.01,5,2,8,0.00
2012-5-7,96,69,49,38,26,18,57,28,11,30.01,29.96,7,2,10,0.00
2012-5-8,97,71,51,38,26,12,55,26,11,29.96,29.90,8,1,12,0.00
2012-5-9,89,66,51,39,32,26,59,34,15,29.96,29.87,8,1,10,0.00
2012-5-10,90,65,45,43,29,17,77,37,12,29.93,29.84,10,1,12,0.00
2012-5-11,92,72,51,36,22,9,52,21,11,29.99,29.84,8,3,13,0.00
2012-5-12,94,69,52,33,22,11,43,23,11,30.04,29.99,8,1,8,0.00
2012-5-13,76,59,0,47,36,27,79,47,23,30.07,29.99,9,2,15,0.00
2012-5-14,72,59,48,45,36,27,75,48,25,30.07,30.01,9,2,12,0.00
2012-5-15,76,61,50,46,39,31,80,51,24,30.04,29.96,8,2,11,0.00
2012-5-16,84,67,50,46,37,27,76,41,20,30.01,29.93,9,1,13,0.00
2012-5-17,70,56,49,48,39,31,79,57,28,29.96,29.84,15,2,27,0.00
2012-5-18,82,60,45,44,33,16,80,45,15,29.96,29.90,12,2,17,0.00
2012-5-19,88,64,45,42,30,18,75,39,13,29.99,29.90,9,2,14,0.00
2012-5-20,91,66,50,42,34,25,61,38,15,30.01,29.93,10,1,15,0.00
2012-5-21,74,60,51,50,42,34,80,56,31,30.10,29.99,11,2,17,0.00
2012-5-22,76,63,52,52,40,30,83,51,23,30.10,30.04,10,3,20,0.00
2012-5-23,74,61,52,44,36,28,73,44,23,30.04,29.93,12,3,17,0.00
2012-5-24,74,59,47,44,34,28,76,45,24,29.93,29.72,11,3,16,0.00
2012-5-25,63,54,47,40,31,25,62,44,29,29.84,29.69,10,3,15,0.00
2012-5-26,65,54,47,42,38,32,74,56,34,30.07,29.81,14,3,17,0.00
2012-5-27,74,57,50,43,39,30,74,55,25,30.13,30.04,8,2,13,0.00
2012-5-28,69,57,49,48,38,29,86,54,27,30.07,30.01,12,2,15,0.00
2012-5-29,78,60,48,42,35,27,73,46,21,30.07,30.01,9,2,13,0.00
2012-5-30,89,65,46,46,36,26,81,45,17,30.07,30.01,9,2,13,0.00
2012-5-31,98,72,50,45,35,20,72,37,13,30.04,29.87,9,1,13,0.00
2012-6-1,98,72,57,44,37,28,60,35,13,29.87,29.75,10,1,13,0.00
2012-6-2,83,64,54,50,42,34,82,52,22,29.96,29.84,16,2,23,0.04
2012-6-3,85,63,49,46,35,20,78,45,14,29.96,29.90,8,2,13,0.00
2012-6-4,60,56,50,51,43,37,80,63,48,30.10,29.90,10,3,14,0.12
2012-6-5,71,57,48,41,32,24,74,45,22,30.16,30.07,12,4,15,0.00
2012-6-6,73,59,45,42,32,24,73,42,22,30.10,29.96,11,3,15,0.00
2012-6-7,78,60,47,46,38,28,80,51,21,30.01,29.96,10,2,16,0.00
2012-6-8,74,60,49,50,36,25,84,50,21,29.99,29.93,14,2,21,0.00
2012-6-9,88,66,45,42,26,12,77,35,11,29.99,29.87,5,1,10,0.00
2012-6-10,95,74,62,24,16,10,20,15,11,29.93,29.87,9,1,13,0.00
2012-6-11,98,74,56,33,23,14,37,21,11,29.96,29.90,10,2,15,0.00
2012-6-12,91,70,54,42,36,28,58,36,15,29.96,29.90,13,2,19,0.00
2012-6-13,86,69,53,46,37,29,74,39,18,29.93,29.75,8,2,13,0.00
2012-6-14,87,66,50,46,36,26,73,41,16,29.81,29.75,13,1,17,0.08
2012-6-15,91,69,48,42,30,18,71,35,12,29.84,29.75,9,2,13,0.00
2012-6-16,109,82,59,44,29,20,49,23,8,29.87,29.78,7,1,10,0.00
2012-6-17,99,77,60,41,33,22,51,26,10,29.90,29.78,6,1,10,0.00
2012-6-18,86,64,53,49,37,22,77,44,18,29.90,29.84,10,2,14,0.00
2012-6-19,93,69,50,46,32,20,74,37,12,29.90,29.81,9,2,13,0.00
2012-6-20,100,74,55,38,27,17,49,25,10,29.87,29.81,8,2,15,0.00
2012-6-21,66,57,52,44,38,30,71,53,34,29.96,29.81,10,2,15,0.00
2012-6-22,75,59,50,49,39,32,76,52,26,29.96,29.87,8,3,13,0.00
2012-6-23,74,60,52,49,35,25,75,46,21,29.96,29.84,9,3,14,0.00
2012-6-24,75,60,47,44,33,22,78,44,19,30.01,29.93,10,3,14,0.00
2012-6-25,73,60,50,46,37,26,76,49,22,30.07,30.01,10,3,15,0.00
2012-6-26,83,64,51,45,34,20,70,41,14,30.04,29.87,12,2,17,0.00
2012-6-27,88,66,50,45,31,14,74,37,13,29.96,29.87,10,2,17,0.04
2012-6-28,82,65,51,48,39,30,76,46,20,30.07,29.96,11,2,15,0.00
2012-6-29,76,63,56,52,46,38,79,59,30,30.10,30.01,10,2,13,0.00
2012-6-30,82,66,58,56,49,42,84,60,29,30.04,29.96,10,2,15,0.00
2012-7-1,73,63,57,56,49,43,84,64,38,29.99,29.90,9,3,15,0.00
2012-7-2,81,65,55,54,44,34,83,53,22,29.93,29.87,9,2,13,0.00
2012-7-3,90,67,51,50,38,24,83,45,17,29.93,29.84,7,1,10,0.00
2012-7-4,88,67,53,48,37,26,76,41,16,29.90,29.81,9,2,16,0.00
2012-7-5,73,61,54,46,40,29,71,51,24,30.01,29.87,11,3,17,0.04
2012-7-6,88,68,51,49,35,20,81,41,13,30.01,29.96,9,2,12,0.00
2012-7-7,98,74,54,39,28,12,53,26,11,30.01,29.93,9,2,13,0.00
2012-7-8,88,68,54,45,32,20,64,34,13,30.01,29.96,9,1,14,0.00
2012-7-9,91,68,53,50,34,20,80,40,12,30.04,29.96,6,1,9,0.00
2012-7-10,105,74,50,49,31,18,80,32,9,29.96,29.81,7,1,11,0.00
2012-7-11,108,83,61,35,27,20,37,19,8,29.90,29.81,8,2,12,0.00
2012-7-12,102,76,59,46,33,21,62,28,9,29.87,29.81,8,1,11,0.00
2012-7-13,79,62,51,50,40,31,82,50,23,29.96,29.84,10,2,16,0.00
2012-7-14,83,65,54,49,40,31,80,47,20,29.93,29.87,9,2,13,0.00
2012-7-15,91,68,53,52,40,28,83,46,15,29.93,29.81,8,2,14,0.00
2012-7-16,72,62,56,49,42,34,75,53,30,29.93,29.84,10,3,15,0.00
2012-7-17,75,62,54,48,39,31,75,47,24,29.99,29.90,9,2,12,0.00
2012-7-18,79,64,53,48,40,31,72,48,22,29.99,29.96,10,2,17,0.00
2012-7-19,83,64,53,51,41,30,81,50,20,30.04,29.93,10,2,15,0.00
2012-7-20,98,72,55,54,39,22,84,43,11,30.07,29.96,9,1,14,0.00
2012-7-21,104,78,57,49,34,20,69,30,9,29.99,29.87,9,2,15,0.00
2012-7-22,99,76,57,49,34,20,67,30,10,29.90,29.81,10,2,13,0.04
2012-7-23,89,70,57,48,38,31,70,38,18,29.93,29.87,10,2,16,0.00
2012-7-24,88,68,54,52,39,22,82,44,15,29.93,29.87,8,1,12,0.00
2012-7-25,85,66,55,53,41,31,82,48,19,29.96,29.90,8,2,12,0.00
2012-7-26,82,64,53,51,41,31,82,51,21,29.96,29.90,10,2,13,0.00
2012-7-27,68,61,56,42,39,36,59,47,33,29.99,29.96,4,0,6,0.00
2012-7-28,86,66,53,50,41,30,77,48,18,30.01,29.96,9,2,13,0.00
2012-7-29,90,68,55,50,37,18,77,43,12,30.01,29.93,8,2,11,0.00
2012-7-30,103,73,52,53,36,20,84,39,9,29.96,29.84,8,1,13,0.00
2012-7-31,99,75,57,50,33,19,71,31,10,29.96,29.90,8,1,15,0.00
2012-8-1,101,72,54,53,34,18,81,35,10,29.99,29.93,7,1,11,0.00
2012-8-2,102,73,54,52,34,20,80,35,9,29.96,29.81,10,1,13,0.04
2012-8-3,92,68,52,52,38,22,81,42,12,29.87,29.78,7,1,11,0.00
2012-8-4,80,63,54,52,45,34,84,56,24,29.96,29.78,9,1,13,0.00
2012-8-5,84,66,55,54,44,31,87,53,20,30.01,29.90,8,2,11,0.00
2012-8-6,98,70,52,51,37,20,85,44,11,30.04,29.99,8,1,10,0.00
2012-8-7,92,70,54,48,34,14,71,36,12,29.99,29.90,10,2,15,0.00
2012-8-8,102,73,51,48,31,14,75,33,9,29.96,29.84,8,1,12,0.00
2012-8-9,107,78,56,42,28,13,55,24,9,29.90,29.78,9,1,13,0.00
2012-8-10,107,78,58,42,29,18,54,24,9,29.81,29.69,9,1,12,0.00
2012-8-11,109,78,55,45,29,12,67,26,8,29.75,29.66,6,1,10,0.00
2012-8-12,105,78,59,44,30,17,58,26,9,29.78,29.72,6,1,10,0.00
2012-8-13,108,81,62,42,26,12,47,20,8,29.78,29.66,10,1,13,0.00
2012-8-14,101,77,64,41,30,17,42,23,10,29.75,29.66,7,1,10,0.00
2012-8-15,98,73,58,51,38,22,76,36,11,29.81,29.69,9,1,14,0.00
2012-8-16,99,71,55,52,35,14,80,39,11,29.84,29.75,9,1,14,0.00
2012-8-17,96,70,53,52,36,20,84,40,11,29.87,29.78,10,1,13,0.00
2012-8-18,93,72,57,47,36,21,67,34,12,29.84,29.78,9,2,12,0.00
2012-8-19,91,67,52,52,37,21,84,43,12,29.84,29.75,6,1,10,0.00
2012-8-20,97,69,51,49,34,20,76,40,11,29.81,29.72,7,1,10,0.00
2012-8-21,93,67,51,52,38,22,83,44,12,29.78,29.69,8,1,8,0.00
2012-8-22,88,66,52,55,40,27,86,49,15,29.78,29.75,8,1,11,0.00
2012-8-23,92,69,54,55,40,26,85,46,15,29.78,29.69,6,1,9,0.00
2012-8-24,92,68,52,52,38,22,84,43,12,29.75,29.69,8,1,11,0.00
2012-8-25,84,63,53,52,40,30,83,51,20,29.72,29.66,11,2,20,0.00
2012-8-26,72,59,54,46,42,32,74,57,27,29.84,29.72,9,2,14,0.00
2012-8-27,95,69,50,54,39,22,88,46,11,29.90,29.81,7,1,10,0.00
2012-8-28,91,71,55,56,39,20,84,41,12,29.87,29.78,10,2,15,0.00
2012-8-29,103,74,52,44,29,12,73,31,9,29.81,29.63,8,1,10,0.00
2012-8-30,94,73,56,42,28,20,55,25,11,29.69,29.63,8,1,10,0.00
2012-9-9,58,56,54,43,41,39,64,58,52,29.78,0.00,0,0,0,0.00
2012-9-10,97,68,49,52,34,17,88,43,11,29.78,29.66,9,1,12,0.00
2012-9-11,93,69,51,49,35,20,80,38,12,29.81,29.66,7,1,10,0.00
2012-9-12,96,70,52,53,36,22,84,41,11,29.90,29.78,7,1,8,0.00
2012-9-13,102,74,58,48,35,20,65,33,10,29.93,29.84,7,1,11,0.00
2012-9-14,94,68,55,46,34,19,65,37,11,29.93,29.81,6,1,10,0.00
2012-9-15,95,70,52,48,32,14,75,36,11,29.90,29.81,7,1,9,0.00
2012-9-16,94,70,52,44,29,12,63,30,11,29.87,29.78,8,1,10,0.00
2012-9-17,87,65,52,47,36,22,75,43,13,29.87,29.81,6,1,9,0.00
2012-9-18,86,63,49,46,36,25,78,45,16,29.93,29.84,7,1,10,0.00
2012-9-19,80,61,51,49,37,25,79,49,17,29.93,29.84,7,1,10,0.00
2012-9-20,88,63,48,49,35,17,83,46,13,29.90,29.81,9,1,11,0.00
2012-9-21,94,68,49,48,33,12,80,41,11,29.84,29.72,6,1,8,0.00
2012-9-24,61,61,60,35,34,34,41,39,38,29.72,29.72,0,0,2,0.00
2012-9-25,94,68,52,45,33,19,71,36,11,29.72,29.63,9,1,13,0.00
2012-9-26,94,68,51,51,37,26,82,42,14,29.66,29.60,4,0,6,0.00
2012-9-27,100,72,54,50,37,22,76,38,10,29.66,29.57,4,0,6,0.16
2012-9-28,84,67,56,47,37,28,65,39,19,29.69,29.60,8,1,10,0.00
2012-9-29,100,70,53,52,37,20,83,43,10,29.75,29.66,4,0,7,0.00
2012-9-30,105,77,58,42,29,17,53,25,9,29.78,29.66,4,0,5,0.00
2012-10-1,108,80,59,34,23,12,38,18,8,29.72,29.60,4,0,6,0.00
2012-10-2,110,81,0,29,19,10,33,14,8,29.60,29.48,4,0,5,0.00
2012-10-3,100,76,61,42,25,16,50,21,10,29.63,29.51,9,1,13,0.00
2012-10-4,82,65,57,51,42,30,76,50,20,29.78,29.63,8,2,10,0.00
2012-10-5,78,64,56,52,43,30,84,53,22,29.78,29.69,8,2,11,0.00
2012-10-6,79,62,52,53,39,27,85,51,20,29.72,29.57,9,2,12,0.00
2012-10-7,79,62,52,50,40,28,81,51,20,29.60,29.54,9,2,11,0.00
2012-10-8,74,60,49,54,41,28,87,56,23,29.63,29.57,9,2,11,0.00
2012-10-9,80,62,49,50,40,28,83,51,20,29.63,29.51,8,2,12,0.00
2012-10-10,79,62,51,54,41,30,86,54,21,29.54,29.45,11,2,17,0.00
2012-10-11,59,56,52,48,44,41,80,66,55,29.54,29.45,7,1,13,0.00
2012-10-12,64,57,50,50,42,35,83,61,37,29.78,29.51,6,1,8,0.04
2012-10-13,84,61,47,49,39,28,84,53,19,29.84,29.72,8,1,11,0.00
2012-10-14,87,65,52,57,45,34,88,56,20,29.75,29.66,5,1,8,0.00
2012-10-15,90,68,53,56,43,31,86,50,18,29.69,29.54,7,1,10,0.00
2012-10-16,88,70,59,57,48,38,81,52,22,29.57,29.45,9,1,12,0.00
2012-10-17,96,71,54,52,26,10,75,31,10,29.48,29.39,6,1,8,0.00
2012-10-18,95,71,56,51,26,10,62,24,11,29.57,29.45,8,1,13,0.00
2012-10-19,84,68,56,58,50,39,80,57,24,29.60,29.45,8,1,10,0.00
2012-10-20,73,60,50,55,44,35,84,60,32,29.51,29.34,9,1,12,0.00
2012-10-21,63,55,48,42,33,23,74,48,27,29.45,29.37,10,2,15,0.00
2012-10-22,66,55,51,50,39,25,83,59,28,29.48,29.28,9,3,13,0.47
2012-10-23,67,55,48,51,37,22,86,58,23,29.57,29.48,12,1,20,0.04
2012-10-24,66,55,47,45,37,25,81,56,25,29.72,29.54,8,2,11,0.00
2012-10-25,73,58,51,49,39,25,82,54,23,29.78,29.69,6,0,8,0.00
2012-10-26,84,61,46,33,26,14,53,33,11,29.75,29.63,4,0,6,0.00
2012-10-27,88,66,50,44,36,26,70,41,15,29.63,29.51,6,0,8,0.00
2012-10-28,88,67,54,51,41,27,77,47,15,29.57,29.48,4,0,6,0.00
2012-10-29,87,65,52,52,42,33,81,52,19,29.63,29.57,4,0,6,0.00
2012-10-30,83,61,51,56,43,29,91,60,19,29.60,29.48,8,1,9,0.04
2012-10-31,63,59,57,52,48,41,84,67,47,29.54,29.48,8,1,10,0.00
2012-11-1,70,60,51,58,49,38,93,72,35,29.57,29.51,7,1,10,0.31
2012-11-2,76,57,45,49,39,32,83,57,24,29.60,29.54,5,1,7,0.00
2012-11-3,82,60,48,49,39,28,82,53,20,29.69,29.57,4,0,5,0.00
2012-11-4,87,64,51,48,39,27,74,48,16,29.72,29.66,4,0,6,0.00
2012-11-5,89,66,52,48,40,28,76,47,18,29.72,29.60,3,0,5,0.00
2012-11-6,89,66,52,51,42,32,79,50,18,29.63,29.54,3,0,5,0.00
2012-11-7,76,60,51,49,43,28,78,58,22,29.57,29.45,9,1,13,0.00
2012-11-8,60,51,42,43,34,24,74,53,31,29.48,29.37,10,3,15,0.16
2012-11-9,59,47,39,44,32,22,86,61,28,29.48,29.39,8,1,11,0.08
2012-11-10,66,49,40,35,27,17,74,48,20,29.75,29.48,8,1,10,0.00
2012-11-11,67,48,37,38,28,20,81,52,23,29.87,29.72,6,1,8,0.00
2012-11-12,70,50,37,34,25,18,72,44,20,29.84,29.75,4,0,6,0.00
2012-11-13,76,54,41,28,24,17,54,37,15,29.75,29.60,4,0,5,0.00
2012-11-14,77,55,44,37,30,23,64,43,20,29.63,29.51,0,0,2,0.00
2012-11-15,74,56,44,38,32,26,65,45,21,29.51,29.42,0,0,0,0.00
2012-11-16,64,56,47,51,45,34,85,68,36,29.51,29.37,0,0,0,0.04
2012-11-17,61,57,0,55,51,42,93,79,59,29.99,29.34,8,2,13,0.83
2012-11-18,65,54,47,53,39,23,94,63,25,30.19,29.99,7,1,10,0.04
2012-11-19,69,57,47,46,35,25,75,49,24,30.22,30.13,9,1,11,0.00
2012-11-20,69,60,52,49,42,37,69,53,35,30.16,30.01,10,4,15,0.00
2012-11-21,66,57,46,56,46,35,88,68,36,30.19,30.01,8,1,11,0.63
2012-11-22,72,53,42,48,35,25,90,58,22,30.22,30.16,4,0,5,0.00
2012-11-23,74,54,42,42,35,27,82,56,22,30.22,30.13,4,0,7,0.00
2012-11-24,76,55,43,45,35,26,81,55,21,30.19,30.01,3,0,5,0.00
2012-11-25,74,54,42,45,37,27,85,59,22,30.01,29.93,4,0,5,0.00
2012-11-26,74,54,41,43,37,28,84,60,23,30.07,29.96,4,0,5,0.00
2012-11-27,66,53,46,51,41,34,91,68,35,30.10,29.99,5,0,6,0.00
2012-11-28,62,55,49,52,45,38,82,71,48,30.04,29.84,11,2,15,0.39
2012-11-29,61,58,53,52,44,33,76,60,40,30.04,29.90,10,4,16,0.00
2012-11-30,60,59,55,56,52,48,89,79,68,30.04,29.81,14,4,26,2.20
2012-12-1,63,59,56,56,50,45,93,73,56,30.04,29.93,10,3,14,0.39
2012-12-2,62,56,45,56,47,38,89,75,45,30.10,29.78,15,3,27,1.57
2012-12-3,66,51,40,48,39,30,94,69,30,30.19,30.07,4,1,6,0.00
2012-12-4,64,55,49,49,44,40,84,67,45,30.19,30.13,4,0,8,0.00
2012-12-5,63,59,55,61,55,41,95,87,52,30.16,30.10,8,1,10,0.71
2012-12-6,57,53,46,54,48,42,98,82,62,30.13,30.07,8,1,10,0.04
2012-12-7,69,51,40,50,37,26,95,68,24,30.13,30.04,4,1,5,0.00
2012-12-8,63,48,38,51,34,22,89,64,24,30.07,30.01,5,0,6,0.00
2012-12-9,71,55,42,34,26,20,71,37,22,30.16,30.07,7,1,8,0.00
2012-12-10,75,58,47,35,29,25,62,38,21,30.22,30.07,5,1,8,0.00
2012-12-11,71,51,41,42,36,28,77,60,24,30.10,29.87,10,1,11,0.00
2012-12-12,50,49,38,44,43,32,82,80,76,29.90,0.00,9,3,13,0.04
2012-12-13,60,43,35,42,29,19,87,63,25,29.90,29.81,5,0,8,0.00
2012-12-14,51,41,0,34,30,24,82,68,38,30.01,29.78,5,0,8,0.00
2012-12-15,46,40,33,40,35,29,90,82,55,30.07,29.96,4,0,6,0.16
2012-12-16,56,50,43,49,42,37,91,77,53,30.07,29.99,8,1,11,0.08
2012-12-17,57,52,44,52,44,34,90,74,59,30.07,29.96,10,3,13,0.28
2012-12-18,57,45,36,36,22,13,74,45,25,30.13,29.96,8,2,16,0.00
2012-12-19,58,41,30,28,18,10,74,45,19,30.28,30.13,4,1,7,0.00
2012-12-20,60,46,32,26,19,13,65,40,24,30.19,29.99,10,2,14,0.00
2012-12-21,50,49,48,25,22,17,42,37,30,29.99,29.93,7,3,10,0.00
2012-12-23,54,52,47,52,47,43,95,85,74,29.99,29.84,15,3,23,0.75
2012-12-24,61,48,40,48,35,26,93,66,30,30.16,29.99,6,1,9,0.04
2012-12-25,50,44,37,45,36,28,89,76,54,30.13,29.78,10,2,15,0.67
2012-12-26,54,48,43,44,38,32,85,71,48,30.04,29.84,8,2,11,0.04
2012-12-27,61,46,37,40,30,21,79,59,26,30.13,30.04,5,1,7,0.00
2012-12-28,47,40,34,36,32,29,85,74,56,30.13,30.01,3,0,4,0.00
2012-12-29,58,44,37,42,32,22,88,67,28,30.07,29.99,4,1,6,0.08
2012-12-30,60,44,34,39,27,18,86,57,25,30.13,29.99,4,1,7,0.00
2012-12-31,60,42,31,27,21,12,73,48,22,30.25,30.13,5,1,6,0.00
2013-1-1,57,42,34,33,25,19,75,54,26,30.25,30.16,5,1,8,0.00